[[{"header":{"parameterUnit":"m.s-1","parameterCategory":1,"la1":30.2991,"la2":30.254,"lo1":-89.0895,"lo2":-89.0444,"dy":0.0017,"dx":0.0017,"nx":28,"ny":28,"refTime":"2025-04-10T03:00:00:Z","depth":0,"parameterNumber":2,"parameterNumberName":"U-component_of_WINDS"},"data":[0,0,0,0,0,0,0,0,0,0,0,0,0,0,0,0,0,0,0,0,0,0,0,0,0,0,0,0,0,0,0,0,0,0,0,0,0,0,0,0,0,0,0,0,0,0,0,0,0,0,0,0,0,0,0,0,0,0,3.2142,3.2142,0,3.2145,3.2145,3.2145,3.1981,3.1977,3.1973,3.1968,3.1975,3.198,3.1984,0,0,0,0,0,0,0,0,0,0,0,0,0,3.2,3.2003,3.2142,3.2142,3.2142,3.2145,3.2145,3.2145,3.1982,3.1977,3.1971,3.1966,3.1974,3.1979,3.1984,0,0,0,0,0,0,0,0,0,0,0,0,0,3.2038,3.2005,3.2142,3.2061,3.2053,3.2145,3.2145,3.2145,3.1983,3.1977,3.197,3.1964,3.1972,3.1979,3.1985,3.2155,0,0,3.2004,3.2007,0,0,0,0,0,0,0,0,3.2036,3.2044,3.2073,3.2066,3.2059,3.2056,3.2097,3.2149,3.1985,3.201,3.1968,3.1961,3.2008,3.2011,3.2026,3.2155,3.2156,3.2005,3.2009,3.2012,3.2013,0,0,0,0,0,0,0,3.2034,3.2043,3.2143,3.2073,3.2065,3.2026,3.2024,3.2106,3.2046,3.2007,3.1995,3.1998,3.2003,3.202,3.2025,3.2156,3.2005,3.201,3.2014,3.2017,3.2429,3.2436,0,0,0,0,0,0,3.2042,3.2042,3.2143,3.2143,3.2031,3.2034,3.2032,3.2063,3.2044,3.2035,3.2003,3.199,3.2012,3.2018,3.2025,3.2225,3.2011,3.2017,3.2021,3.2422,3.243,3.2438,0,0,0,0,0,0,3.2039,3.2052,3.2143,3.2089,3.2098,3.2043,3.208,3.2067,3.2084,3.2041,3.203,3.2032,3.2008,3.2016,3.2124,3.2223,3.202,3.2026,3.2413,3.2424,3.2434,3.2626,0,0,0,0,0,0,3.2036,3.2052,3.2115,3.2092,3.2101,3.2242,3.2086,3.2072,3.2095,3.2078,3.2065,3.2057,3.2003,3.2116,3.2131,3.2228,3.2031,3.2404,3.2418,3.2431,3.2611,3.2642,3.2669,0,0,0,0,0,3.2031,3.2169,3.2119,3.2132,3.2178,3.2247,3.2253,3.2187,3.2104,3.2167,3.214,3.2057,3.2209,3.2128,3.2144,3.2244,3.2398,3.2414,3.243,3.2598,3.2636,3.2668,0,0,0,0,0,0,3.2206,3.2164,3.2108,3.2242,3.225,3.222,3.2298,3.2229,3.2261,3.2244,3.2162,3.2161,3.2284,3.2274,3.2185,3.241,3.2289,3.2309,3.2411,3.2447,3.2476,3.2476,3.2036,0,0,0,0,0,3.226,3.2318,3.2279,3.2401,3.2407,3.2353,3.238,3.2329,3.2334,3.2336,3.2317,3.2326,3.2376,3.2411,3.2454,3.2608,3.2605,3.2685,3.2714,3.2738,3.2757,3.2842,3.2878,3.2491,3.2491,3.249,0,0,3.2372,3.2356,3.2398,3.2436,3.2435,3.25,3.2356,3.2429,3.2477,3.2348,3.245,3.2437,3.2441,3.2575,3.2632,3.2571,3.2863,3.2759,3.2778,3.2784,3.2862,3.2899,3.2931,3.2502,3.25,3.2498,0,0,3.2609,3.2602,3.2704,3.2707,3.2709,3.2672,3.2697,3.2678,3.2664,3.2765,3.267,3.2727,3.2813,3.2822,3.2838,3.3082,3.3009,3.3099,3.3251,3.3334,3.3365,3.3391,3.3482,3.3515,3.3117,3.3118,3.3118,0,3.2749,3.284,3.2766,3.2847,3.2867,3.2753,3.2857,3.2864,3.2881,3.2899,3.2829,3.2938,3.2933,3.3068,3.3129,3.3144,3.3172,3.31,3.3366,3.3392,3.3416,3.3501,3.3535,3.3129,3.3128,3.3126,3.3125,0,3.3013,3.3079,3.3161,3.318,3.321,3.3302,3.3244,3.3284,3.3231,3.3203,3.3309,3.3299,3.334,3.3368,3.3317,3.3498,3.346,3.338,3.3257,3.3465,3.3544,3.3576,3.3145,3.3141,3.3138,3.3135,0,0,3.336,3.3338,3.337,3.3378,3.3373,3.3423,3.3511,3.3551,3.3588,3.3604,3.3678,3.3756,3.3682,3.37,3.3649,3.3722,3.3921,3.3633,3.3632,3.3689,3.4123,3.4186,3.4224,3.3871,3.3877,3.3882,3.4124,0,3.3592,3.3741,3.3678,3.3834,3.3896,3.3789,3.3867,3.3873,3.385,3.39,3.3873,3.3931,3.3828,3.3839,3.3906,3.3883,3.4007,3.3864,3.3942,3.3946,3.3946,3.4265,3.433,3.4559,3.4154,3.4159,3.4163,0,3.3883,3.3911,3.4074,3.406,3.4083,3.4154,3.4187,3.4235,3.4242,3.422,3.4242,3.4176,3.4264,3.4142,3.4264,3.4169,3.4197,3.4191,3.4198,3.4204,3.4068,3.4282,3.463,3.4665,3.421,3.4206,3.4203,0,3.4124,3.4202,3.431,3.432,3.4306,3.4359,3.4356,3.4356,3.4385,3.4414,3.4432,3.4472,3.4495,3.4528,3.4476,3.439,3.4608,3.4479,3.4594,3.4596,3.4646,3.4644,3.5006,3.4661,3.466,3.466,3.4659,0,3.4391,3.4495,3.4418,3.4485,3.4599,3.4527,3.4643,3.4629,3.463,3.4694,3.4604,3.4666,3.4592,3.4648,3.4607,3.4717,3.4727,3.4714,3.4703,3.4724,3.4726,3.4742,3.4726,3.4669,3.4667,3.4665,3.4663,0,3.4679,3.4631,3.4742,3.4721,3.4718,3.4804,3.4786,3.4848,3.4819,3.4901,3.4916,3.4871,3.4932,3.4883,3.4943,3.4916,3.5062,3.5027,3.506,3.5052,3.517,3.5161,3.5557,3.5607,3.5229,3.5232,3.5235,0,3.4854,3.4932,3.4919,3.4955,3.4958,3.5017,3.5046,3.4979,3.5014,3.5029,3.509,3.5144,3.5183,3.5287,3.5261,3.5307,3.5274,3.541,3.528,3.5301,3.528,3.5277,3.5286,3.5437,3.5441,3.5445,3.5448,0,3.5171,3.5144,3.5189,3.5228,3.5265,3.5292,3.5312,3.5347,3.5279,3.5323,3.5385,3.5416,3.5477,3.5533,3.5571,3.557,3.55,3.5489,3.5518,3.5542,3.5559,3.5554,3.5135,3.548,3.5477,3.5474,3.5473,3.5471,3.541,3.5475,3.5477,3.5531,3.554,3.5561,3.5619,3.5598,3.5648,3.5692,3.565,3.5726,3.5733,3.5776,3.5784,3.5844,3.5788,3.583,3.5841,3.5854,3.5872,3.5548,3.585,3.5849,3.5848,3.5848,3.5847,0,3.5724,3.5721,3.5771,3.5803,3.5847,3.5774,3.5794,3.5836,3.5903,3.5915,3.5957,3.603,3.6084,3.6063,3.6111,3.6164,3.6133,3.6179,3.6176,3.6178,3.5918,3.5888,3.6203,3.6203,3.6203,3.6203,3.6203,3.6203,3.5893,3.6001,3.5976,3.6088,3.6083,3.6156,3.6174,3.6195,3.6205,3.629,3.6335,3.632,3.632,3.6368,3.6416,3.6408,3.6432,3.6491,3.6472,3.623,3.6195,3.6162,3.6134,3.6496,3.6496,3.6727,3.673,3.6731]},{"header":{"parameterUnit":"m.s-1","parameterCategory":1,"la1":30.2991,"la2":30.254,"lo1":-89.0895,"lo2":-89.0444,"dy":0.0017,"dx":0.0017,"nx":28,"ny":28,"refTime":"2025-04-10T03:00:00:Z","depth":0,"parameterNumber":3,"parameterNumberName":"V-component_of_WINDS"},"data":[0,0,0,0,0,0,0,0,0,0,0,0,0,0,0,0,0,0,0,0,0,0,0,0,0,0,0,0,0,0,0,0,0,0,0,0,0,0,0,0,0,0,0,0,0,0,0,0,0,0,0,0,0,0,0,0,0,0,-4.4739,-4.4741,0,-4.4913,-4.4915,-4.4917,-4.4957,-4.4956,-4.4955,-4.4954,-4.5131,-4.5137,-4.5143,0,0,0,0,0,0,0,0,0,0,0,0,0,-4.4439,-4.4444,-4.4739,-4.4741,-4.4743,-4.4913,-4.4915,-4.4918,-4.4958,-4.4956,-4.4955,-4.4953,-4.5129,-4.5136,-4.5143,0,0,0,0,0,0,0,0,0,0,0,0,0,-4.4587,-4.4446,-4.4738,-4.4783,-4.4789,-4.4912,-4.4915,-4.4918,-4.4958,-4.4956,-4.4954,-4.4953,-4.5127,-4.5135,-4.5144,-4.5234,0,0,-4.5171,-4.5175,0,0,0,0,0,0,0,0,-4.4578,-4.4598,-4.4775,-4.4781,-4.4787,-4.4912,-4.4875,-4.5024,-4.4958,-4.4894,-4.4954,-4.4952,-4.5059,-4.5074,-4.511,-4.5243,-4.525,-4.5172,-4.5177,-4.5181,-4.5183,0,0,0,0,0,0,0,-4.4568,-4.459,-4.4808,-4.4777,-4.4785,-4.4795,-4.4814,-4.4903,-4.4985,-4.4899,-4.4903,-4.4923,-4.5063,-4.5102,-4.5115,-4.5253,-4.5171,-4.5179,-4.5185,-4.5188,-4.5467,-4.5469,0,0,0,0,0,0,-4.455,-4.4581,-4.4802,-4.4813,-4.4676,-4.4801,-4.4823,-4.4874,-4.4984,-4.4999,-4.4924,-4.4924,-4.5088,-4.5104,-4.5121,-4.5233,-4.5181,-4.5189,-4.5194,-4.5465,-4.5467,-4.547,0,0,0,0,0,0,-4.4543,-4.4569,-4.4795,-4.4698,-4.4728,-4.4808,-4.4865,-4.4878,-4.4917,-4.5003,-4.5017,-4.4949,-4.5087,-4.5109,-4.5206,-4.524,-4.5193,-4.5201,-4.5462,-4.5466,-4.5468,-4.5458,0,0,0,0,0,0,-4.4535,-4.4567,-4.4602,-4.4699,-4.4733,-4.4877,-4.4867,-4.4883,-4.4932,-4.4934,-4.503,-4.5044,-4.5087,-4.5192,-4.5214,-4.5251,-4.5208,-4.5459,-4.5464,-4.5467,-4.5456,-4.5461,-4.5465,0,0,0,0,0,-4.4524,-4.4592,-4.4604,-4.463,-4.4779,-4.4879,-4.4898,-4.4947,-4.4935,-4.4971,-4.5026,-4.5041,-4.5233,-4.5202,-4.5227,-4.5267,-4.5457,-4.5462,-4.5467,-4.5454,-4.546,-4.5465,0,0,0,0,0,0,-4.4497,-4.4606,-4.462,-4.4722,-4.4791,-4.4886,-4.4933,-4.4952,-4.5026,-4.5024,-4.508,-4.5102,-4.5195,-4.5241,-4.5205,-4.536,-4.5345,-4.5355,-4.5326,-4.5333,-4.5337,-4.5324,-4.5215,0,0,0,0,0,-4.4503,-4.4576,-4.4667,-4.4748,-4.4782,-4.4851,-4.4897,-4.4928,-4.5002,-4.5031,-4.5093,-4.5164,-4.524,-4.5289,-4.5364,-4.5463,-4.5484,-4.5503,-4.5507,-4.5511,-4.5518,-4.5574,-4.5583,-4.5486,-4.5485,-4.5485,0,0,-4.4516,-4.4585,-4.4627,-4.4744,-4.4802,-4.4875,-4.4876,-4.4954,-4.5008,-4.5043,-4.5138,-4.5186,-4.5269,-4.5367,-4.5413,-4.5408,-4.555,-4.5517,-4.5519,-4.5525,-4.5579,-4.5589,-4.5597,-4.5489,-4.5488,-4.5488,0,0,-4.4578,-4.4637,-4.4711,-4.4768,-4.4855,-4.4901,-4.4918,-4.5011,-4.5044,-4.514,-4.5167,-4.5233,-4.5364,-4.5421,-4.5467,-4.555,-4.5567,-4.5573,-4.5596,-4.5649,-4.5657,-4.5664,-4.5692,-4.5702,-4.5581,-4.5581,-4.5581,0,-4.4583,-4.4695,-4.4746,-4.4823,-4.4873,-4.4908,-4.4983,-4.5036,-4.5143,-4.5176,-4.5169,-4.5333,-4.5391,-4.5503,-4.5523,-4.556,-4.5581,-4.5562,-4.5652,-4.5659,-4.5667,-4.5694,-4.5705,-4.5581,-4.5581,-4.5581,-4.5581,0,-4.4697,-4.4774,-4.4823,-4.4926,-4.4982,-4.5057,-4.5118,-4.5169,-4.5195,-4.5241,-4.5339,-4.541,-4.5499,-4.5528,-4.5555,-4.5644,-4.5638,-4.564,-4.5626,-4.5675,-4.5702,-4.5713,-4.5581,-4.5581,-4.5581,-4.5581,0,0,-4.4746,-4.4875,-4.4892,-4.4939,-4.5037,-4.5098,-4.5174,-4.5262,-4.5304,-4.5376,-4.5441,-4.5551,-4.5554,-4.5606,-4.5639,-4.5686,-4.5746,-4.5683,-4.5686,-4.5692,-4.5847,-4.5844,-4.5855,-4.5758,-4.576,-4.5762,-4.584,0,-4.4819,-4.4957,-4.5005,-4.5119,-4.519,-4.5224,-4.5291,-4.5358,-4.5403,-4.547,-4.552,-4.5596,-4.5595,-4.5626,-4.5674,-4.5728,-4.5778,-4.5724,-4.5818,-4.5821,-4.5795,-4.587,-4.5867,-4.5937,-4.5851,-4.5853,-4.5854,0,-4.4922,-4.4996,-4.5116,-4.5205,-4.5237,-4.5296,-4.538,-4.5444,-4.5521,-4.555,-4.5608,-4.5638,-4.5719,-4.5701,-4.5812,-4.5774,-4.5816,-4.5848,-4.5852,-4.5862,-4.584,-4.5881,-4.596,-4.597,-4.5872,-4.587,-4.5869,0,-4.4944,-4.5074,-4.5163,-4.5202,-4.5308,-4.5348,-4.5394,-4.5469,-4.5519,-4.5592,-4.5625,-4.5706,-4.5751,-4.5813,-4.5864,-4.5846,-4.5971,-4.5957,-4.5997,-4.5995,-4.602,-4.6018,-4.6107,-4.6049,-4.6048,-4.6048,-4.6048,0,-4.502,-4.5092,-4.5174,-4.5229,-4.5311,-4.5365,-4.5444,-4.5492,-4.5559,-4.5623,-4.5658,-4.5717,-4.5781,-4.5849,-4.5889,-4.5975,-4.5995,-4.602,-4.603,-4.6017,-4.6013,-4.6044,-4.604,-4.6051,-4.6051,-4.605,-4.6049,0,-4.5058,-4.5116,-4.5215,-4.5308,-4.5333,-4.5389,-4.5468,-4.5522,-4.5568,-4.5649,-4.5671,-4.5744,-4.5825,-4.5882,-4.5987,-4.6014,-4.6106,-4.6115,-4.608,-4.6084,-4.612,-4.6116,-4.6231,-4.6249,-4.618,-4.618,-4.6181,0,-4.5102,-4.5158,-4.5257,-4.5302,-4.5348,-4.5421,-4.5472,-4.5528,-4.5579,-4.567,-4.5713,-4.5797,-4.5866,-4.5995,-4.6056,-4.6136,-4.6148,-4.6183,-4.616,-4.6145,-4.6147,-4.6143,-4.6148,-4.6186,-4.6186,-4.6187,-4.6187,0,-4.5173,-4.5199,-4.5271,-4.5353,-4.5412,-4.548,-4.5547,-4.5582,-4.565,-4.5705,-4.5789,-4.5843,-4.595,-4.6032,-4.6118,-4.6165,-4.6187,-4.6194,-4.6207,-4.6194,-4.617,-4.6182,-4.6088,-4.6191,-4.619,-4.619,-4.619,-4.619,-4.5215,-4.5266,-4.5343,-4.5422,-4.5479,-4.5541,-4.5596,-4.565,-4.5721,-4.5812,-4.584,-4.5927,-4.6002,-4.6119,-4.6168,-4.6236,-4.6233,-4.6253,-4.6258,-4.6261,-4.626,-4.616,-4.6252,-4.6252,-4.6252,-4.6252,-4.6252,0,-4.5287,-4.5338,-4.541,-4.5504,-4.5565,-4.5581,-4.5657,-4.5707,-4.5783,-4.5851,-4.5919,-4.6015,-4.6095,-4.6163,-4.6246,-4.6287,-4.6299,-4.6307,-4.6304,-4.6314,-4.6258,-4.6238,-4.6296,-4.6296,-4.6296,-4.6296,-4.6296,-4.6296,-4.5331,-4.5419,-4.5454,-4.557,-4.5621,-4.5706,-4.5748,-4.5805,-4.586,-4.5965,-4.6032,-4.6076,-4.6144,-4.6232,-4.6306,-4.6324,-4.6352,-4.6357,-4.6377,-4.6323,-4.6318,-4.6313,-4.6294,-4.6363,-4.6363,-4.6428,-4.6428,-4.6429]}]]